PreDB.eu

music predb - trance, techno, house, hardstyle, hardcore
updated: 2023-01-29 16:11:02
2023-01-29 15:17:38TechnoVA-Techno_2023-(ZYX_83098_2)-3CD-2022-BF
2023-01-29 15:16:00TechnoSinistermind--Cold_Heart-(XR119)-WEB-2023-BABAS
2023-01-29 15:15:38TechnoAndre--Encounter-(TNTS0017)-WEB-2023-BABAS
2023-01-29 15:15:17TechnoManuel_Pi--Loving_Rain-(BET474)-WEB-2023-BABAS
2023-01-29 15:13:55TechnoVA-Peace_Is_Constructed_Not_Fought_For-(OBSCR082)-WEB-2022-BABAS
2023-01-29 15:13:33TechnoThree_Faces_of_Eve--Reasons_To_Remain-(OBSCR084)-WEB-2022-BABAS
2023-01-29 15:13:11TechnoVA-FIRE_SERIES_Vol_01-(OBSCRF01)-WEB-2022-BABAS
2023-01-29 14:15:50Dance57Gabry_Ponte_and_Lumix_-_Monster-(190295439262)-SINGLE-WEB-2019-ZzZz
2023-01-29 14:15:40House618Daxsen_-_Our_World_(Remastered)-(P2P052)-WEB-2018-ZzZz
2023-01-29 14:15:29House510BlackGummy_x_Eddie-Double-Take-(MAU50286)-SINGLE-WEB-2020-AFO
2023-01-29 14:15:15Trance522Jase_Thirlwall-Glow-WAO138045A-WEB-2015-JUSTiFY
2023-01-29 14:15:02Trance623Ben_Nicky-Red_Alert-WAO138043A-WEB-2015-JUSTiFY
2023-01-29 14:14:49Techno858Jeff_Rushin-A_Figment_Of_His_Imagination-WEB-2015-WAV
2023-01-29 14:14:34Techno13123Psyk-Time_Foundation-(MOTECD02D)-WEB-2014-BPM
2023-01-29 14:14:15Techno753Kamikaze_Space_Programme-Ballard-WEB-2015-FALCON
2023-01-29 14:14:00Techno754Skee_Mask--Junt-(ITX05)-WEB-2015-dh_int
2023-01-29 14:13:44Techno950Skee_Mask--Serum-(ITX04)-WEB-2014-SiBERiA
2023-01-29 14:13:29Techno760Bas_Mooy_and_Chris_Finke--Parallel_Series_3-(MOTE029D)-WEB-2012-OMA
2023-01-29 14:10:26Techno14142Adam_X-Creative_Vandalism-SG0123LP-WEB-2023-WAV
2023-01-29 14:02:04Hardstyle625Outer_Mind_-_Daydream-WEB-2023-FMC
2023-01-29 14:00:31Techno1087Ritzi_Lee-Loadbalancer_EP-(R3D068)-WEB-2023-PTC
2023-01-29 14:00:25TechnoA.D--Cosmic_Daze_EP-(MOTTO30)-WEB-2023-BABAS
2023-01-29 13:59:37PsychedelicAmstex--Genesis-(DCREP312)-WEB-2023-BABAS
2023-01-29 13:58:38PsychedelicEverblast--Blaster_Of_Muppets-(ZOMEP056)-WEB-2023-BABAS
2023-01-29 13:58:11TechnoDockson--Shadows_EP-(KOT150)-WEB-2023-BABAS
2023-01-29 13:58:07TechnoKi--Iterations-(DDR056)-WEB-2023-BABAS
2023-01-29 13:57:09TechnoDylab--This_Is_Not_An_Exit-(MOTTO30)-WEB-2023-BABAS
2023-01-29 13:30:15Techno752Killernoizes-For_Eva-WEB-2023-wAx
2023-01-29 13:09:12Trance39436VA_-_Deejay_Dance_Rotation_(Trance_House_and_Techno)_(Vol_07)-(4061707797996)-WEB-2023-ZzZz
2023-01-29 13:01:15Techno646Eddie_Krystal-Mantra__Eyes-(ATKD116)-WEB-2023-PTC
2023-01-29 12:53:41Techno883VHS-PSM-(IAR323)-WEB-2023-PTC
2023-01-29 12:25:17Techno11113Adece-Crash-(DRSS518)-WEB-2023-PTC
2023-01-29 11:10:59Techno645Dylab-This_Is_Not_An_Exit-(CP136)-WEB-2023-PTC
2023-01-29 11:10:26Techno744Trismus-Pulling_The_Trigger-(TMMLTD032)-WEB-2023-PTC
2023-01-29 11:08:25Trance1071VA-Anjunabeats_Rising_17-WEB-2023-AFO
2023-01-29 11:06:05Techno8164Blake_Strange-Phantom-(JANNOWITZ110)-WEBFLAC-2023-PTC
2023-01-29 11:05:46Techno628Diego_Negretti_And_Mauro_Pera-Accelerate-IAMTRED125-WEB-2022-WAV
2023-01-29 11:04:09Trance516HOI-Singularity-(DMAX742)-SINGLE-WEB-2023-AFO
2023-01-29 11:04:08Trance621Sybranax-Tech_Rider-(DMAX743)-WEB-2023-AFO
2023-01-29 11:03:48Trance622Joran_Shade-Unattainable-(FSOE682B)-WEB-2023-AFO
2023-01-29 11:03:10Trance842Ander_One-Neon_EP-(ASR457)-WEB-2023-AFO
2023-01-29 11:03:03Trance620Diego_Morrill_and_Joseph_Vega-Momentum-(ECT288)-WEB-2023-AFO
2023-01-29 11:03:02Techno859Blake_Strange-Phantom-(JANNOWITZ110)-WEB-2023-AFO
2023-01-29 11:03:00Trance516Lele_Palmieri-Terra_Amara-(GERT0755)-SINGLE-WEB-2023-AFO
2023-01-29 11:02:36Trance623Jack_Ds-Phoenix-(NHW160)-WEB-2023-AFO
2023-01-29 05:21:08Hardcore741VA_-_That_Happy_Hardcore_Sound_Volume_3_Album_Sampler-(BKRS006)-WEB-2023
2023-01-29 05:20:40Hardstyle510Sl_Complex_-_I_Will_(Edit)-(KKR194)-WEB-2023
2023-01-29 05:20:14Hardcore512Rpl_-_Now_Set_Me_Free-(STI339)-WEB-2023
2023-01-29 05:19:46Hardstyle58Xetlar_-_Final_Night-(KKR191)-WEB-2023
2023-01-29 05:19:22Hardstyle57Despertoman_-_Next_To_Me-WEB-2023
2023-01-29 05:18:58Hardcore512X-Teknokore_-_Dancing_Nightmare-(EHM032)-WEB-2023
2023-01-29 05:18:42Hardcore510Heavy_Damage_-_Incoming-WEB-2023
2023-01-29 05:12:22Hardstyle56Hyrax_-_The_Rush-WEB-2023
2023-01-29 05:11:59Hardcore511Merkurius_-_Tchakaboom-(UGTC2302)-WEB-2023
2023-01-29 05:11:33Hardcore410The_Sickest_Squad_-_Psychedelic_People-(SR14)-WEB-2022
2023-01-29 03:16:48Ambient25237Virginia_Astley-Hope_In_A_Darkened_Heart-(WMC5-567)-JP_Reissue-CD-FLAC-1992-SHGZ
2023-01-29 02:32:47Techno644Sisko_Electrofanatik-Ametista-(TERM218)-WEB-2022-PTC
2023-01-29 01:55:14Techno13150Dyno-Analog_Shot-(DRW268)-WEB-2022-PTC
2023-01-28 23:45:21Techno965Gotshell--Storange-(ASD061)-WEB-2022-BABAS
2023-01-28 22:45:39Techno15120Hugo_Rolan--Futuristic_Technology-(ASD060)-WEB-2022-BABAS
2023-01-28 21:17:06TranceNaden-Naden_Essentials_Vol._2-(EDM045)-WEBFLAC-2023-L4L
2023-01-28 19:18:44Trance528Chris_Oblivion-My_Reflection_Changes-(RRD050)-WEB-2023-wAx
2023-01-28 19:04:37Ambient161714Solar_Fields-Movements-LTD_REMASTERED-VINYL-FLAC-2018-KINDA
2023-01-28 17:52:43Techno418Piccolo-Acid_Trouble-(TMORNVS016)-SINGLE-WEB-2023-wAx
2023-01-28 17:43:07Techno770Per_Hammar--Returnation_EP-(DH008)-WEB-2023-BABAS
2023-01-28 17:40:35Techno867Danitz-Aborted_Dreams_EP-(KUBE058)-WEB-2023-wAx
2023-01-28 15:02:23Techno1397Christian_Wunsch-Black_Sun-(TSU053LP)-WEB-2023-B2R
2023-01-28 13:55:31Psychedelic418Transpose-Senses-(INM1DIGI724)-SINGLE-WEB-2023-FALCON
2023-01-28 13:55:16Psychedelic538Eliyahu-Magic_Gate-(BTRDR1045)-WEB-2023-FALCON
2023-01-28 13:55:00Psychedelic414Galactic_Explorers-X905-(GR008)-SINGLE-WEB-2023-FALCON
2023-01-28 13:54:46Psychedelic413Dissy-We_Are_At_War-(197546864224)-SINGLE-WEB-2023-FALCON
2023-01-28 13:54:30Psychedelic413Perception-Double_Ipa-(TESD0482)-SINGLE-WEB-2023-FALCON
2023-01-28 13:54:14Psychedelic757Ziul_Oiram-Eternal_Shadow-(MKDG003)-WEB-2022-FALCON
2023-01-28 13:53:58Psychedelic419Genuim-Plastician-(1378083)-SINGLE-WEB-2023-FALCON
2023-01-28 12:54:16Trance415Faders_And_Melicia_Feat._Raja_Ram-Oasis_Volcano_On_Mars_Remix-(SHAMAN038)-SINGLE-WEB-2023-FALCON
2023-01-28 12:54:02Trance4193lmt_And_Twelve_Sessions-Awakening-(SON031)-SINGLE-WEB-2023-FALCON
2023-01-28 12:54:01Trance49Black_21-Love_Of_My_Life-(360M071)-SINGLE-WEB-2023-FALCON
2023-01-28 12:53:56Trance415Two_Aliens-From_Space-(REG313)-SINGLE-WEB-2023-FALCON
2023-01-28 12:53:16Trance411Interactive_Noise-Let_Forever_Be-(SPN1DIGI824)-SINGLE-WEB-2023-FALCON
2023-01-28 12:52:44Trance648Ohuican-Neurodarksis-(IFI028)-WEB-2023-FALCON
2023-01-28 12:52:44Trance415Freeze_And_Slapstick-Into_The_Light-(NUEP261)-SINGLE-WEB-2023-FALCON
2023-01-28 12:52:43Trance418E-Clip-One_Consciousness-(IBOGADIGITAL816)-SINGLE-WEB-2023-FALCON
2023-01-28 12:52:42Trance413Bassfactor-Change-(BHM018)-SINGLE-WEB-2023-FALCON
2023-01-28 12:52:13Trance415Flashback_Feat._Gur-New_Age-(197547807053)-SINGLE-WEB-2023-FALCON
2023-01-28 12:51:34Trance12148Nomad_Aliens-Volatile_Energy-(1378934)-WEB-2023-FALCON
2023-01-28 12:51:33Trance538Alternate_Side-Collided_Reality-(YSEDEP160)-WEB-2023-FALCON
2023-01-28 12:51:30Trance415Altered_State-Supernova-(INM1DIGI725)-SINGLE-WEB-2023-FALCON
2023-01-28 12:51:14Trance413Woza_And_Natika-The_Tribe-(URDR272)-SINGLE-WEB-2023-FALCON
2023-01-28 12:51:11Trance421Mercuroid-Ogin-(EXP165)-SINGLE-WEB-2023-FALCON
2023-01-28 12:50:37Trance755Luke_Lethal-Molecule-(BLK177)-WEB-2023-FALCON
2023-01-28 12:50:31Trance416The_Last-Moving_Image-(ANTEP196)-SINGLE-WEB-2023-FALCON
2023-01-28 12:50:30Trance417Makida_And_Hyde-Psychedelic-(DOPDIGI330)-SINGLE-WEB-2023-FALCON
2023-01-28 12:50:15Trance420Pelengas-Track_Number_One-(GSR162)-SINGLE-WEB-2023-FALCON
2023-01-28 12:50:13Trance768Amonati-Artificial_Intelligence-(ARRA020)-WEB-2023-FALCON
2023-01-28 12:50:12Trance759Alien_Translator-Fear_Of_The_Sky-(BHOOTEP003)-WEB-2023-FALCON
2023-01-28 12:50:11Trance411Mr._Nobody-The_Call-(139)-SINGLE-WEB-2023-FALCON
2023-01-28 12:50:09Trance49Alhyd_Feat._Dynamon_And_Soulpacifica-Frozen_Heart-(BTRDR1046)-SINGLE-WEB-2023-FALCON
2023-01-28 12:49:48Trance417Sonic_Entity-Celestial_Seeds-(ARTX016)-SINGLE-WEB-2023-FALCON
2023-01-28 12:48:46Trance419Interium-Aeon-(TSR0202)-SINGLE-WEB-2023-FALCON
2023-01-28 12:47:58Trance413Hi_Profile-Mistakes_Middle-D_Remix-(XIX81004)-SINGLE-WEB-2023-FALCON
2023-01-28 12:47:07Trance415Hidden_Vibes-Those_People-(MSHRMS001)-SINGLE-WEB-2023-FALCON
2023-01-28 12:46:48Trance414X-Beat-Changes-(PSY110)-SINGLE-WEB-2023-FALCON
2023-01-28 12:46:48Trance414Delta_Species_And_Kurtt-Sometimes-(MONKEY252023)-SINGLE-WEB-2023-FALCON
2023-01-28 12:46:36Trance412Special_M_And_Zahar-Glow_In_The_Dark-(SNK089)-SINGLE-WEB-2023-FALCON
2023-01-28 12:46:33Trance418Sandman-Cosmic_Police-(FMR150)-SINGLE-WEB-2023-FALCON
2023-01-28 12:46:02Trance49Zyrus_7-With_You-SINGLE-WEB-2023-FALCON
2023-01-28 12:46:02Trance411Tropic_Sound-Unexpected-(ODV024)-SINGLE-WEB-2023-FALCON
2023-01-28 12:45:50Trance10132Arkam-Rainforest_Ritual-(VHRCD096)-WEB-2023-FALCON
2023-01-28 12:45:18Trance419Offlabel-Alien_Rock_The_First_Sound_Check-(BLKLSG020)-SINGLE-WEB-2023-FALCON_INT
2023-01-28 12:45:17Trance413LUTRA_Feat._Miti-Acid-(LUTRA004)-SINGLE-WEB-2023-FALCON
2023-01-28 12:44:26Trance416Cosmic_Shake-Meteor-(ABCD65)-SINGLE-WEB-2023-FALCON
2023-01-28 11:13:31Hardcore11124Scooter_-_Move_Your_Ass_(Remixes)-(006105-0_CLU)-VINYL-1995
2023-01-28 11:03:35Trance640Kohta_Imafuku-Akane-(TITLEP007)-WEB-2023-wAx
2023-01-28 08:16:12House57Breathe_Carolina_and_Jordan_Jay_-_All_I_Need-(190295436414)-SINGLE-WEB-2019-ZzZz
2023-01-28 08:16:00House1046Dubdogz-Day_EP-(SP2122)-WEB-2020-AOV_INT
2023-01-28 08:15:46House614D-Rashid_ft_Deadly_Zoo_and_Raquel_Sofia_-_Donde_vas_(Latin_Village_2017_Anthem)-(SP1386AP)-WEB-SP-2017-MMS
2023-01-28 08:15:34Trance12155Jaia2Gaia-Energy-(RIZCD004)-WEB-2018-LEV
2023-01-28 08:15:11House58Deepend_X_Joe_Stone_X_BAZZFLOW_-_If_You_Love_Me-(190295432553)-SINGLE-WEB-2019-ZzZz
2023-01-28 08:14:58Techno725Martyn_Hare_-_Untitled-(EMETIC001)-Vinyl-2003-TN_ACID
2023-01-28 08:14:41Techno823Martyn_Hare-Emetic_III-(Emetic_03)-Vinyl-2003-MTC
2023-01-28 08:14:25Techno729Martyn_Hare--Emetic_VI_(EMETIC006)-VINYL-2004-CMC
2023-01-28 08:14:10Techno856Andrea-Remade-(IT037)-WEB-2018-AGITB
2023-01-28 08:13:53Techno732Martyn_Hare--Emetic_V_(EMETIC005)-VINYL-2004-CMC
2023-01-28 08:13:38Electronic16128Getter-Visceral-WEB-2018-ENTiTLED
2023-01-28 07:53:52Techno855Sina_XX--Body_To_Body_II_Paris-Berlin-(BODYTOBODY002)-WEB-2023-BABAS
2023-01-28 07:00:01Techno852Orlando_Voorn--Savage_Routine_EP-(MAG197)-WEB-2022-BABAS
2023-01-28 05:21:50Hardcore840Billx_and_Eolya_-_Pour_Les_Dieux-(UCSTREP_01)-WEB-2023
2023-01-28 05:21:24Hardstyle723Repeller_and_Valido_-_The_Lost_Kingdom_EP_(Edits)-(SPOON251)-WEB-2023
2023-01-28 05:21:00Hardcore57Nor3_-_Distorted_Soul_(Edit)-(SCR007B)-WEB-2023
2023-01-28 05:20:38Hardcore57Alv3R_-_Devil_Inside_(Edit)-(RTTER54)-WEB-2023
2023-01-28 05:20:14Hardstyle59LillyRazy_-_Change-(KKE036)-WEB-2023
2023-01-28 05:19:48Hardstyle511The_Exoduz_-_Higher_(Edit)-(DWX1338)-WEB-2023
2023-01-28 05:19:22Hardstyle59Madd_-_Lift_Me_Up_(Pro_Mix)-(TCLABSPRO074)-WEB-2023
2023-01-28 05:18:56Hardstyle59Adronity_Ft._TNYA_-_Riders_Of_The_Storm_(Original_Mix)-(PRSPX154)-WEB-2023
2023-01-28 05:18:31Hardcore, Frenchcore58Dethveda_-_Cyber_God_(Edit)-(EFR37)-WEB-2022
2023-01-28 05:12:02Hardstyle59Posyden_and_Insurgent_-_The_World_(Original_Mix)-WEB-2022
2023-01-28 05:11:35Hardcore49D-Kore_-_Nghtmr-(SR16)-WEB-2022
2023-01-28 05:05:35Psychedelic21485VA-Frequency_Travellers_(Compiled_by_John_Phantasm)-(PTM204)-WEB-2023-BABAS
2023-01-28 05:05:13Psychedelic514MindFlux--Effects_Of_LSD-(DSQ312)-SINGLE-WEB-2023-BABAS
2023-01-28 04:06:59Psychedelic518Chromatone--Trip_The_Balance-(NANODIGI310)-SINGLE-WEB-2023-BABAS
2023-01-28 04:06:06Psychedelic14188VA-Stoneage_Retro_Series_2-(STONECD032)-WEB-2023-BABAS
2023-01-28 04:05:20Psychedelic416Noisekiller--Psychedelic_Meditation-(GOAEP479)-SINGLE-WEB-2023-BABAS
2023-01-28 04:05:19Psychedelic637Don_Quixote_x_Illuzio--Beautiful_Agony-(OVNIEP531)-WEB-2023-BABAS
2023-01-28 04:04:54Psychedelic533Acid_DJ--Lsdination-(GEOEP388)-WEB-2023-BABAS
2023-01-28 04:04:48Psychedelic44652VA-Goa_Delicacies_Vol_2-WEB-2023-BABAS
2023-01-28 04:04:27Psychedelic637Coral--The_Shape_Of_Reality-(SPARMU005)-WEB-2023-BABAS
2023-01-28 04:04:01Psychedelic534Psylestial--Between_Worlds-(HIT180)-WEB-2023-BABAS
2023-01-28 04:03:26Psychedelic653R-Alien--Atmosfear-(BEL0029)-WEB-2023-BABAS
2023-01-28 04:03:22Psychedelic415Unlogix--Mysterious_Planet-SINGLE-WEB-2023-BABAS
2023-01-28 04:02:05Psychedelic417Hux_Flux--Lex_Rex_Perplex_(Barby_Remix)-(SPIT306)-SINGLE-WEB-2023-BABAS
2023-01-28 04:01:28Psychedelic419Sunbasket--Rooom-(PNR260)-SINGLE-WEB-2023-BABAS
2023-01-28 02:10:54Techno977Solarythm_-_Agape_(NAVIGAREDIG004)-WEB-2023-TR
2023-01-28 02:07:04Techno1194VA-Tenebris_II-(DRKF41)-WEB-2023-BABAS
2023-01-28 01:55:04Techno526Echobeat-The_Invasion_of_Evil-(TOXIC494)-WEB-2023-PTC
2023-01-28 01:52:56Techno525Wolk-Exposed-(DBR025)-WEB-2023-PTC
2023-01-28 01:36:57Techno759Ferdinando_Daneri-Electric-(LJR104)-WEB-2023-PTC
2023-01-28 01:35:17Techno643Yuka-Mahakali-(KV040)-WEB-2022-PTC
2023-01-28 01:34:26Techno860Olivier_Abbeloos_x_Analog_Devices--Acid-A-Gogo-(TRIP013)-WEB-2023-BABAS
2023-01-27 23:12:25Techno961RemPhase-Lost_Desires_EP-GUEST11-WEB-2023-WAV
2023-01-27 23:04:14Techno8391Thee_J_Johanz_Jim_Lok-Bombay_Spring_Rolls_EP-VINYL-FLAC-2018-FrB
2023-01-27 22:54:24Techno17178Lidvall-Mind_Conflict-STD271-WEB-2023-WAV
2023-01-27 22:26:16Trance56Bonka_-_I_Like_It_(Moji_Remix)-(3617055594353)-SINGLE-WEB-2023-ZzZz
2023-01-27 21:43:53Trance512Twinspin_-_Hysteria_(Acid_Mix)-(5063161638784)-SINGLE-WEB-2023-ZzZz
2023-01-27 21:41:17Trance765Enea_Marchesini_and_Sammy_Love_-_Hare_Hare-(DSD150)-WEB-2023-ZzZz
2023-01-27 21:40:28Trance514Essiuah_-_Lets_Rock-(EDH018)-SINGLE-WEB-2023-ZzZz
2023-01-27 21:31:51Trance515Impulse_Wave_-_Across_The_Sky-(LSR048)-SINGLE-WEB-2023-ZzZz
2023-01-27 19:48:54Techno516Felix_Krocher-Ignition-WATN027-SINGLE-WEB-2023-WAV
2023-01-27 19:17:08Techno6174Umek-Once_Again_EP-(1605286)-WEB-FLAC-2023-AOVF
2023-01-27 18:58:59Techno866Dan_Wild--Panic_Buying-(RCD014)-WEB-2023-BABAS
2023-01-27 18:38:09Trance1070Thomas_Lloyd_-_Dance_Or_Die_EP-(DB072)-WEB-2023-FMC
2023-01-27 18:35:05Trance512Julie_Dvir-Want_Your_Body_(Extended_Mix)-(FTR026)-SINGLE-WEB-2022-AOV
2023-01-27 17:34:42Trance833DJ_Shog_And_Danny_Fervent_-_Let_Me_Go-(MMRD1603)-WEB-2023-FMC
2023-01-27 17:33:58Techno7602psyched-Kralendijk-(2PSY002)-WEB-2023-PTC
2023-01-27 17:29:06Hardstyle44269VA_-_Hardstyle_Festival_Sounds_2023-2CD-2023-FMC
2023-01-27 17:16:32Techno426Unspecial--Der_Freund_I_(Deadbeats_Sands_of_Time_Dub)-(MILLIGRAMME006)-SINGLE-WEB-2023-YALLA_INT
2023-01-27 17:01:58Hardcore49Downshot_x_Daniel_Gun-Unleashed-SINGLE-WEB-2023-wAx
2023-01-27 16:57:16Techno413Jens_Lissat-Money_and_Chicks-(STU201)-SINGLE-WEB-2023-PTC
2023-01-27 16:51:46Techno413Marco_Leckbert-Space_Fury-(AKR022)-SINGLE-WEB-2023-PTC
2023-01-27 16:45:31Techno564Mart_Hoogkamer-Ik_Ga_Zwemmen_(LNY_TNZ_En_Crude_Intentions_Remix)-NL-WEB-FLAC-2022-AOVF
2023-01-27 16:45:00Techno618Mart_Hoogkamer-Ik_Ga_Zwemmen_(LNY_TNZ_En_Crude_Intentions_Remix)-WEB-NL-2022-AOV
2023-01-27 16:16:32Techno542Mastik_Groove_And_Pierfrancesco_Grossi-Mother_Earth-(RR475)-SINGLE-WEB-FLAC-2023-AOVF
2023-01-27 15:32:13Trance413Shapov_And_NERAK-Valhalla_(Extended_Mix)-(ARMD1699)-SINGLE-WEB-2023-AOV
2023-01-27 14:36:59Hardcore620Al_Storm_and_Diakronik_-_Witness_The_Power_(Diakroniks_24_7_Remix)-(247HC305)-WEB-2023-ZzZz
2023-01-27 13:43:45Hardcore618The_Satan_-_Pit_Bull-(T3RDM0383)-WEB-2023-SRG
2023-01-27 13:41:56Hardcore626The_Outside_Agency_Ft._Pythius_And_The_Satan_-_Crossbreed_Definition_Series_Part_4-(GEN175-018)-WEB-2023-SRG
2023-01-27 13:41:51Hardcore59Anhatema_-_Haze_Of_Bass-(FWXXDIGI156)-SINGLE-WEB-2023-SRG
2023-01-27 13:41:15Hardcore5103rdWav_-_Walk_Alone-(EX067)-SINGLE-WEB-2023-SRG
2023-01-27 12:53:29Techno676Alat-CH.3_Evolution_Of_Evil-(CHBLACK058)-WEB-FLAC-2023-AOVF
2023-01-27 11:46:30Trance8163Robert_Miles-Children_(Dance_Vault_Mixes)-WEB-FLAC-1996-AOVF_Classics
2023-01-27 11:26:55Techno512Ecstatic_-_Ecuador_(Ecstatic_Remix)-WEB-MX-2022-MARiBOR_INT
2023-01-27 11:05:39Trance13507Push-Strange_World_(Remastered_Remixes)-(BBC202332480)-WEBFLAC-2023-AFO
2023-01-27 11:02:24Trance13162Push-Strange_World_(Remastered_Remixes)-(BBC202332480)-WEB-2023-AFO
2023-01-27 11:02:23Techno514The_Rocketman_and_Belocca-Lunar_Eclipse-(RM026)-SINGLE-WEB-2023-AFO
2023-01-27 11:01:41Trance515Alex_Di_Stefano-Injection-(SKLD060)-SINGLE-WEB-2023-AFO_INT
2023-01-27 10:57:25Techno417The_Yellowheads_And_NoNameLeft-Sector_D-RBL476-SINGLE-WEB-2023-WAV
2023-01-27 10:07:46Techno853Marcal-Cyber_Dystopia-ENEMY039-WEB-2023-WAV
2023-01-27 09:30:04Techno628Arni-Flight-IAMTRED128-WEB-2023-WAV
2023-01-27 09:26:52Trance626Benya_and_Sara_Houston-Chasing_Cars-(BIFR010)-WEB-2023-AFO_INT
2023-01-27 09:02:18Trance516NoMosk_and_Lucid_Blue-Inside_The_Fire_(Mike_Zaloxx_Remix)-(VOICE147)-SINGLE-WEB-2023-AFO_INT
2023-01-27 08:03:50Trance517Lost_Knowledge-Inner_World-(PS022)-SINGLE-WEB-2023-AFO_INT
2023-01-27 08:02:57Trance515Victor_Tayne-Moment_(NyTiGen_Remix)-(2RR177)-SINGLE-WEB-2023-AFO_INT
2023-01-27 08:01:57Trance59Corti_Organ-Please_Leave_A_Message-(FYH076)-SINGLE-WEB-2023-AFO_INT
2023-01-27 08:01:56Trance514Aki_Harunari-Shining_Forever-(DARK119)-SINGLE-WEB-2023-AFO_INT
2023-01-27 07:56:26Trance514Code_2-Ur_Gonna_Want_Me-(HTE199)-SINGLE-WEB-2023-AFO_INT
2023-01-27 07:53:26Techno513Eli_Brown-Make_You_Freak-(DCX005)-SINGLE-WEB-2023-AFO_INT
2023-01-27 07:49:35Techno514Reinier_Zonneveld_and_D-Devils-Dance_With_The_Devil_(The_6th_Gate)_(Reinier_Zonneveld_Remix)-(FOA124)-SINGLE-WEB-2023-AFO_INT
2023-01-27 06:29:14Techno520Naptone_-_Story_Of_My_Life-(HUF194)-WEB-2023-MARiBOR_INT
2023-01-27 05:18:23Trance847Michael_Woods_-_Solex_(Close_to_the_Edge)-WEB-2017
2023-01-27 05:18:02Trance11111Tom_Wax_Joins_Jamx_and_De_Leon_-_Louder__Softer-WEB-2013
2023-01-27 05:17:41Techno620Neika_-_RAVE32-(RAVE32)-WEB-2023
2023-01-27 05:17:25Techno14130Codigo_Vermelho_-_Runtime_Exception-WEB-2022
2023-01-27 05:17:05Techno12116Bruno_Wolf_-_Noise_Dealer-(IMMT011)-WEB-2022
2023-01-27 05:16:41Techno744Eric_Sneo_and_Virgil_Enzinger_-_Dynamic_Flow_EP-(PATRN_028)-WEB-2006
2023-01-27 05:16:23Hardstyle58Revelation_and_Sabotage_-_What_The_F_(Edit)-(GBR179)-WEB-2023
2023-01-27 05:15:59Hardstyle512Swbk_-_Never_Give_Up_(Edit)-(DMWH013)-WEB-2023
2023-01-27 05:15:33Hardstyle59Cold_Confusion_and_Mc_Flo_-_No_Way_Out_(Edit)-(MINUS180)-WEB-2023
2023-01-27 05:15:09Hardcore955Equal2_-_We_Are_Loud_(Edits)-(PR056)-WEB-2023
2023-01-27 05:14:38Hardstyle618Steve_Hill_X_Technikal_-_Fine_Day_(Hillfire_Mix)-(STRAX031)-WEB-2023
2023-01-27 05:14:23Hardstyle58Bertoc_-_Sun_(Edit)-(KKR195)-WEB-2023
2023-01-27 05:13:57Hardstyle19137VA_-_Hardstyle_Memories_Chapter_20-WEB-2023
2023-01-27 05:13:14Hardstyle59Dr_Rude_and_Kane_Scott_-_Euphoria_(Edit)-(DWX1337)-WEB-2023
2023-01-27 05:12:50Hardcore, Frenchcore57Massive_Ruhl_-_Mr.__Frenchcore-WEB-2023
2023-01-27 05:12:26Hardstyle59SVANE_-_Satellites_(Pro_Mix)-(TCLABSPRO075)-WEB-2023
2023-01-27 05:12:01Hardstyle58Mixturez_-_With_You_(Original_Mix)-(UPR213)-WEB-2022
2023-01-27 05:11:26Hardcore556Death_Punch_-_Sinking_Deeper-(RAPT032)-WEB-FLAC-2022
2023-01-27 04:42:07Techno415Felix_Kroecher-Ignition-(WATN027)-SINGLE-WEB-2023-PTC
2023-01-27 02:47:50Techno654Henriette_Ramirez-Amalthea_EP-(GPLUS082)-WEB-2023-PTC
2023-01-27 02:41:51Techno13146VA-Best_Of_2022-(AGILE139)-WEB-2023-PTC
2023-01-27 02:34:21Techno27334VA-Elektrax_Recordings_Best_of_2022-(ELEKCD026)-WEB-2023-PTC
2023-01-27 02:33:59Techno534David_Moleon-Toma_Ya-(TRA097)-WEB-2023-PTC
2023-01-27 02:25:54Techno15178VA-Timeless-(ANTLP012)-WEB-2023-PTC
2023-01-27 01:29:04Techno524Anteac-Glycerin-(SMASH075)-WEB-2023-PTC
2023-01-27 01:18:48Trance514Armin_Van_Buuren_And_Andrew_Rayel-EIFORYA-WEB-2014-TSP
2023-01-27 01:18:34Trance515Amir_Hussain_and_Allen_Watts-Step_Into_My_World-WAO138010-WEB-2014-JUSTiFY
2023-01-27 01:18:19Trance534Will_Holland_Feat_Jeza-Start_Again__Part_2-(ENHANCED084R)-WEB-2011-VOiCE
2023-01-27 01:18:02Trance538Will_Holland_Feat_Jeza-Start_Again-(ENHANCED084)-WEB-2011-VOiCE
2023-01-27 01:17:44Trance34217VA_-_Strictly_Trance_Vol.01-2CD-2004-JiM
2023-01-27 01:17:15Trance32354VA_-_Gary_D._Presents_D.Trance_28-4CD-Ltd.Ed.-2004-ViBEZ
2023-01-27 01:16:35Trance627John_Askew-Shine-WEB-2014-TSP
2023-01-27 01:16:19Trance515WaCh-Carthage-WAO138009-WEB-2014-JUSTiFY
2023-01-27 01:16:05House990Dido-Everything_To_Lose__The_Remixes-WEB-2010-TSP
2023-01-27 01:15:43Trance629Photographer-Night_Lights-WAO138007-WEB-2014-JUSTiFY
2023-01-27 01:15:09Electronic1265REZZ-Certain_Kind_of_Magic-WEB-2018-ENSLAVE
2023-01-27 01:14:54Techno752Andrea_(IT)-Space_Forma-(IT025)-WEB-2014-YOU
2023-01-27 01:14:37Techno852Andrea--Outlines-(IT028)-WEB-2015-SiBERiA
2023-01-27 01:14:21Techno1266VA-Mass_Manipulation-WEB-2017-LEV
2023-01-27 01:13:50Techno729DJ_Glenn_Vs_The_Voltage_Club-Wake_Up_For_The_Toxic_Beat-Vinyl-2002-SND
2023-01-27 01:00:23Techno758Annika_Wolfe-Saudade_EP-(SYNTHETIK003)-WEB-2023-PTC
2023-01-27 00:56:36Techno529Quaake-Psychosis__White_Rabbit-(FLR015)-WEB-2023-PTC
2023-01-27 00:54:01Techno751Blanka-Love_Letter-(CBR006)-WEB-2023-PTC
2023-01-27 00:49:15Techno641Sub.Vision_and_Sarica-Sodalite-(SIREC065)-WEB-2023-PTC
2023-01-27 00:31:05Hardcore510Whizzkid_-_Good_Times-(BR0059)-SINGLE-WEB-2023-ZzZz
2023-01-26 23:59:44Techno531Donnie_Darko-Fuck_Likes-(MR041)-WEB-2023-PTC
2023-01-26 23:14:21Electronic16145Dazion-Grooveboxxx-(DKMNTL093)-WEB-2022-PTC
2023-01-26 23:13:42Techno527Virgil_Enzinger--Move_Beyond_Thyratron-(CLR15)-WEB-2006-dh
2023-01-26 22:42:20Techno689Dave_Angel-Glide-(REKIDS215)-WEBFLAC-2023-PTC
2023-01-26 22:05:45Techno18551VA-Sektion_2-RC2-WEB-FLAC-2022-WAVED
2023-01-26 22:04:19Techno18534VA-Sektion_1-RC1-WEB-FLAC-2020-WAVED
2023-01-26 21:02:30Techno527Twins_Project-Paranoid-(DGR090)-WEB-2023-wAx
2023-01-26 20:05:57Hardstyle56Lexxy_Chainz_-_Secrets-(SSO008)-SINGLE-WEB-2023-FMC
2023-01-26 20:02:12Techno15177Wyndell_Long--Analog_Frustations-(MRDIGI297)-WEB-2023-BABAS
2023-01-26 20:00:10Hardstyle59Cold_Confusion_Feat_MC_Flo_-_No_Way_Out-(MINUS180)-SINGLE-WEB-2023-FMC
2023-01-26 19:52:26Trance23535VA-Ultima_Audio_Essentials_2022_(Mixed_by_Alex_John)-(UAE003)-WEB-2023-AFO_INT
2023-01-26 19:38:45Techno748Sopik-RAVE34-(RAVE34)-WEB-2023-wAx
2023-01-26 19:24:37Techno518Saytek--IYNDUB01_(Live)-(RS2213)-SINGLE-WEB-2023-BABAS
2023-01-26 18:52:07Techno965Tremor--The_Serpent_Lay_Ahead_EP-(01366CAT4)-WEB-2023-BABAS
2023-01-26 18:43:18Techno633Silat_Beksi--FLEXIBLE_SHAPES-(SBM007)-WEB-2023-BABAS
2023-01-26 18:42:32Techno8177Amazingblaze-Cant_Stop_EP-(KNTXT019)-WEBFLAC-2023-PTC
2023-01-26 18:31:18Techno7135Filterheadz-Waveriders_EP-(TR449)-WEBFLAC-2023-PTC
2023-01-26 18:20:00Trance693Tiesto-The_Tube-(BCD2023553)-REMASTERED-WEB-FLAC-2023-AOVF
2023-01-26 18:08:02Techno855Esteban_Miranda-Oppresso-CSMD139-WEB-2023-WAV
2023-01-26 18:05:26Trance632Tiesto-The_Tube_-_Remastered-(BCD2023553)-WEB-2023-AFO
2023-01-26 17:37:03Techno418Mau_Bacarreza-Acid_Waves-(MOON027)-SINGLE-WEB-2023-PTC
2023-01-26 17:31:06Trance622James_Dymond_and_James_R_K_Freeman-Opus_2-(GOM085)-WEB-2023-AFO
2023-01-26 17:19:43Trance620SICKCODE_and_Keuse-Vina_Night-(AVA441)-WEB-2023-AFO
2023-01-26 17:19:17Trance619LTN_pres_Ghostbeat_and_Christina_Novelli-Loving_You-(AVAD059)-WEB-2023-AFO
2023-01-26 17:18:52Trance625Rinaly_ft_Donna_Tella-Home-(AVAW273)-WEB-2023-AFO
2023-01-26 17:18:17Trance848Carlos_Adonis_and_Ren_Faye-Another_Galaxy-(VAU124)-WEB-2023-AFO
2023-01-26 17:17:19Trance622Chris_Schweizer-Higher_State-(SUBC296)-WEB-2023-AFO
2023-01-26 17:16:50Trance626Haikal_Ahmad-Dark_Stories-(DMGD144)-WEB-2023-AFO
2023-01-26 17:16:18Trance624Matt_Karrey_and_John_Calm-Moments-(SCS071)-WEB-2023-AFO
2023-01-26 17:14:58Techno624Alat-CH.3_Evolution_of_Evil-(CHBLACK058)-WEB-2023-AFO
2023-01-26 17:09:42Techno632Melanie_Massa-Dizziness-(ALULA170)-WEB-2023-AFO_INT
2023-01-26 17:07:31Trance625Marco_V-GODD_(Mark_Sherry_Remix)-(IC252D2)-WEB-2023-AFO
2023-01-26 17:03:01Techno736Root_Noise-Pronounced_EP-ALLE194-WEB-2023-WAV
2023-01-26 17:01:16Trance624Kebu-Michaels_Anthem_(Daniel_Kandi_Remix)-(ZT039)-WEB-2023-AFO
2023-01-26 16:59:54Techno742Flug-Altered_Existence_II-DCLTD29-WEB-2023-WAV
2023-01-26 16:58:55Techno634Johan_Vais-The_True_EP-REDECLR161-WEB-2023-WAV
2023-01-26 16:53:51Techno758Samuel_Bass_And_Dan_Horizon-Neuro-PTLMD030-WEB-2023-WAV
2023-01-26 16:52:36Techno862Venedetty-Several_Abductions-PTLMD029-WEB-2023-WAV
2023-01-26 16:50:26Techno630Cyraxx-Cursed_Bells-PTLMD031-WEB-2023-WAV
2023-01-26 16:37:52Trance621Amar_N-Spiritualized-(INFRAPU107)-WEB-2023-AFO
2023-01-26 16:37:06Techno624Wiccuwa-City_EP-ECLR390-WEB-2023-WAV
2023-01-26 16:36:38Trance620EDU_BRAVO-Run_Without_Fear-(SSR410)-WEB-2023-AFO
2023-01-26 16:34:17Trance622Protoculture-Weightless-(ENPROG519E)-WEB-2023-AFO
2023-01-26 16:34:08Trance623Elenski-Holy_Awe-(NV072)-WEB-2023-AFO
2023-01-26 16:33:44Trance955Revolution_9_and_Codeswitch_and_Aerial_Structures-Tundra-(ASC015)-WEB-2023-AFO
2023-01-26 16:33:32Trance621Allan_Berndtz-Resurrected-(FS077)-WEB-2023-AFO
2023-01-26 16:33:02Trance842AFTERUS-Dreams_Worth_Fighting_For-(RDS062)-WEB-2023-AFO
2023-01-26 16:32:33Trance626Dan_Cooper-Tierra_Santa-(DIGISOC484E)-WEB-2023-AFO
2023-01-26 16:31:59Trance623Mhammed_el_Alami-Reflections-(FSOEF086)-WEB-2023-AFO
2023-01-26 16:31:50Trance628Jeremiah-Element-(ABLD018)-WEB-2023-AFO
2023-01-26 16:31:28Trance621Mind_of_One-Redemption-(FSOEA022)-WEB-2023-AFO
2023-01-26 16:31:09Trance632Starry_Major-On_Top_Of_The_Sky-(RDXM239)-WEB-2023-AFO
2023-01-26 16:30:51Trance624Miyuki_ft_Tara_Louise-Love_Again_Like_That-(NK176)-WEB-2023-AFO
2023-01-26 16:30:34Trance622Daniel_Cesana_and_Lyd14-Be_Alive-(ABL132)-WEB-2023-AFO
2023-01-26 16:30:20Trance750Lost_Witness_and_Lara_Mcallen-Losing_My_Mind-(PTN096)-WEB-2023-AFO
2023-01-26 16:29:23Trance627Kaimo_K_with_Saphron_and_Hardcode-Lifeline-(AMSTR473)-WEB-2023-AFO
2023-01-26 16:28:47Trance618Ruslan_Radriges-Im_Not_Scared-(ITP236E)-WEB-2023-AFO
2023-01-26 16:28:17Trance622Ben_McConnell-Hyde-(SCR054)-WEB-2023-AFO
2023-01-26 16:00:31Techno514Withard_-_Restart_(Earsquaker_Remix)-(4260193021565)-WEB-2023-MARiBOR
2023-01-26 16:00:01Techno588Chris_Liebing-Love_Those_Who_Fight_With_Passion_And_Faith_EP-(CLR106)-WEBFLAC-2023-PTC
2023-01-26 15:44:13Trance623Claudiu_Adam-Edge_Of_Oblivion-(ITPG101E)-WEB-2023-AFO
2023-01-26 15:43:50Trance622Eugenio_Tokarev_and_Hearty-Feel_The_Sunrise-(NM017)-WEB-2023-AFO
2023-01-26 15:43:14Trance622Talla_2xlc_and_DJ_Robyn-Endorphene_Express-(TCR028)-WEB-2023-AFO
2023-01-26 15:42:39Trance623Coff-Do_or_Die-(ESR597)-WEB-2023-AFO
2023-01-26 15:41:40Trance620Kyau_and_Albert-Chimera-(EUPH381)-WEB-2023-AFO
2023-01-26 15:41:13Trance624Katsu_and_Ruslan_Device_vs_PITTARIUS_CODE-Cassiopeia-(MOLSO105)-WEB-2023-AFO
2023-01-26 15:40:28Trance626Gary_McPhail-Attitude-(RGEN127)-WEB-2023-AFO
2023-01-26 15:40:26Trance626Alex_Burn_and_Criostasis-Ultraviolet-(R2R023)-WEB-2023-AFO
2023-01-26 15:40:05Trance517Andres_Selada-New_Horizon-(SDR574)-SINGLE-WEB-2023-AFO
2023-01-26 15:39:35Trance626Autumnal_Poplar_Groves-The_Ring_Of_Life-(RDX138284)-WEB-2023-AFO
2023-01-26 15:39:35Trance518RICARDO_GUERRA-Break_The_Light-(SDR575)-SINGLE-WEB-2023-AFO
2023-01-26 15:39:28Trance744Guy_Alexander-Cognitive_Evaluation-(NIX286)-WEB-2023-AFO
2023-01-26 15:39:28Trance623Clay_C-Flashback-(HVR072)-WEB-2023-AFO
2023-01-26 15:39:20Trance619Edward_Rohm-Tochpan-(WATR178)-WEB-2023-AFO
2023-01-26 15:37:53Trance626Phazer-Superior_Ironman-(RDX528)-WEB-2023-AFO
2023-01-26 15:36:58Trance626Aly_and_Fila_with_Emma_Hewitt-You_and_I_(Ciaran_McAuley_Remix)-(FSOE683B)-WEB-2023-AFO
2023-01-26 15:36:03Trance623Asteroid-Gravitation-(ARL007)-WEB-2023-AFO
2023-01-26 15:35:43Trance625Puresoul-Embracing_Love-(TMU079)-WEB-2023-AFO
2023-01-26 15:35:24Techno639Giusepperino_and_Sapphire-Alien-(AMP128)-WEB-2023-PTC
2023-01-26 15:33:42Hardstyle510Coone_And_Robert_Falcon_-_All_Of_The_Lights-(DWX1344)-SINGLE-WEB-2023-FMC
2023-01-26 15:33:12Hardstyle58Avi8_-_LOST_And_FOUND-(GBE162)-SINGLE-WEB-2023-FMC
2023-01-26 15:33:06Techno853David_Mijatovic-Differential-SCSSN013-WEB-2023-WAV
2023-01-26 15:30:31Techno729Cristian_Varela-Xenobots_EP-BCE033-WEB-2023-WAV
2023-01-26 15:28:25Trance628Air_Project_and_Ruslan_Aschaulov-Forever_In_My_Heart-(ABRD304)-WEB-2023-AFO
2023-01-26 15:28:21Techno59Umbraid-Motocross-AGS005-SINGLE-WEB-2023-WAV
2023-01-26 15:28:18Trance626Thomas_Knight-Hold_Me_Like_You_Do-(ELEVATE079)-WEB-2023-AFO
2023-01-26 15:27:43Trance519Proteus-Haven-(PURETRANCE255)-SINGLE-WEB-2023-AFO
2023-01-26 15:27:00Techno743Chlar-Dance_Instructor_EP-NIX002-WEB-2023-WAV
2023-01-26 15:26:54Trance617Oleg_Farrier-Feint-(ESS110)-WEB-2023-AFO
2023-01-26 15:26:38Trance622Hiromori_Aso-Final_Blow-(NKF094)-WEB-2023-AFO
2023-01-26 15:18:07Techno859VA-SRC004-WEB-2023-WAV
2023-01-26 15:17:12Techno632UMEK-Once_Again_EP-(1605286)-WEB-2023-AFO
2023-01-26 15:12:29Techno850INGRID-Ratio_EP-FLASH317N-WEB-2023-WAV
2023-01-26 15:09:31Techno631Osiris4-Rules_Of_Life-MODUB001-WEB-2023-WAV
2023-01-26 15:04:28Techno857Distant_Echoes-Ex_Dystopian_016-RTMT006-WEB-2023-WAV
2023-01-26 15:04:16Techno861Distant_Echoes-Ex_Dystopian_009-RTMT005-WEB-2023-WAV
2023-01-26 15:01:15Techno1286Alex_Dolby-Functional_Elements-SQZ03-WEB-2023-WAV
2023-01-26 14:56:38Techno1078VA-FDS_Season_4-EYDFDS04-WEB-2023-WAV
2023-01-26 14:55:41Techno1083VA-FDS_Season_3-EYDFDS03-WEB-2023-WAV
2023-01-26 14:45:27Techno36524VA-5_Years_Anniversary-(ELS055)-WEB-2023-BABAS
2023-01-26 14:40:19Techno536Zeus_Lopez_and_JLChaparro_and_Oliver-K-Think-(MSKD016)-WEB-2023-PTC
2023-01-26 14:40:16Techno531Denis_Rabbe-Future-(KIT134)-WEB-2023-PTC
2023-01-26 14:40:12Techno12118VA-HYS.K006.1-(HYSK006.1)-WEB-2023-PTC
2023-01-26 14:37:18Techno852Maccari-The_Clue-LBRT36-WEB-2023-WAV
2023-01-26 14:31:35Techno866PWCCA-Cell_Research-(COMBINE053)-WEB-2023-PTC
2023-01-26 14:31:19Techno637Klint-Knot_Theory-(MOL034D)-WEB-2023-PTC
2023-01-26 14:30:54Techno526Acor-Champion_Sound-(DRE452)-WEB-2023-PTC
2023-01-26 14:29:24Techno7160Boris_Brejcha-Club_Vibes_Part_06-(HHBER059)-WEBFLAC-2023-AFO
2023-01-26 14:28:54Techno755Boris_Brejcha-Club_Vibes_Part_06-(HHBER059)-WEB-2023-AFO_INT
2023-01-26 14:28:00Techno754WCYA-Undisputed_Attitude-(FLOAT065)-WEB-2023-PTC
2023-01-26 14:27:40Techno762Viels-Distorted_Reality_EP-(DREF046)-WEB-2023-PTC
2023-01-26 14:10:24Techno12102Berkel-Espressione_Massima-ANTR011-WEB-2023-WAV
2023-01-26 14:07:28Trance37503Activa-Origins_(Expanded_Edition)-(BHCD219E)-WEB-2023-AFO
2023-01-26 14:07:17Techno859Augusto_Taito-Rumour_Circuit-IA019D-WEB-2023-WAV
2023-01-26 14:04:57Techno9129Kirill_Torno-Mexperement-(SUPDUB432)-WEB-2023-PTC
2023-01-26 14:04:50Techno852Angioma-Lunacy-ROOM026-WEB-2023-WAV
2023-01-26 14:00:01Techno17392Rikhter-Doma-RIKA1-WEB-FLAC-2021-WAVED
2023-01-26 13:52:04Techno975VA-Series_8-ODD069-WEB-2023-WAV
2023-01-26 13:49:18Techno7128Coyu-Unbowed_EP-(SUARA469)-WEBFLAC-2023-AFO
2023-01-26 13:46:11Techno13123Vinicius_Honorio_And_Aske-Radio_Amazonz-MOD072-WEB-2023-WAV
2023-01-26 13:41:54Techno957The_Preventer-Avalanche-TRM245-WEB-2023-WAV
2023-01-26 13:40:15Techno853Rian_Wood-Hard_People-ETB082-WEB-2023-WAV
2023-01-26 13:40:12Techno13131VA-HYS.K006.2-(HYSK006.2)-WEB-2023-PTC
2023-01-26 13:38:06Trance763Skynet_UK-Clear_Skies_EP-(ALT118)-WEB-2023-AFO
2023-01-26 13:37:32Techno13124VA-Composite_Edition-RKD003-WEB-2023-WAV
2023-01-26 13:34:09Techno20218DJ_Shufflemaster-EXP-(TRESOR167)-WEB-2023-PTC
2023-01-26 13:27:53Techno749Earwax_(IT)-Tar_11-(TAR011)-WEB-2023-PTC
2023-01-26 13:26:03Techno13118VA-Volume_II-FR022-WEB-2023-WAV
2023-01-26 13:16:56Techno14141VA-Hidden_Gems_Vol_1-NTND009-WEB-2023-WAV
2023-01-26 13:11:17Techno966A_Thousand_Details-Ashes_From_Changes_EP-ASR067-WEB-2023-WAV
2023-01-26 13:09:03Techno756Alexander_Johansson_and_Mattias_Fridell-Geometriska_Strukturer_EP-(BP067)-WEB-2023-PTC
2023-01-26 13:08:56Techno1078Lakej-Underlying_Mechanisms_EP-RECT008-WEB-2023-WAV
2023-01-26 13:06:58Techno527Landis_LaPace-Higher-(UNI244)-WEB-2023-PTC
2023-01-26 13:06:32Techno1064Raffaele_Attanasio-Quasar-MR009D-WEB-2023-WAV
2023-01-26 13:03:16Techno863Mesh_Convergence-Implicit_Traits_of_Art-(SNG033D)-WEB-2023-PTC
2023-01-26 13:03:06Techno635Deadwalkman-Work_Dat_Body-(GN166)-WEB-2023-PTC
2023-01-26 13:00:36Techno531Sleepy_and_Boo-Oval_EP-(TRANS224)-WEB-2023-PTC
2023-01-26 12:59:48Techno527SKiRRA-Invasion-(HYDRO148)-WEB-2023-PTC
2023-01-26 12:59:33Techno762Operator_(UK)-Carbon_Towers_EP-(SYMDIGI027)-WEB-2023-PTC
2023-01-26 12:58:47Techno647Andata-No_Photos_No_Exceptions-(SENSO096)-WEB-2023-PTC
2023-01-26 12:54:26Techno866Steve_Parker-X-2222_EP-(PRRUKBLK077)-WEB-2023-PTC
2023-01-26 12:54:21Techno528Marco_Miranda_and_Nico_Rivera-Cyborg-(VIV017)-WEB-2023-PTC
2023-01-26 12:54:06Techno872JSPR-Cyborg_Salsa-(TRUNCATEDGTL19)-WEB-2023-PTC
2023-01-26 12:54:00Techno530Horisone-Tarnax-(EXT049)-WEB-2023-PTC
2023-01-26 12:53:26Techno753Altinbas-Illumination-(TOKEN113D)-WEB-2023-PTC
2023-01-26 12:53:23Techno750Sigvard-Expressed_Heat-(RILIS015)-WEB-2023-PTC
2023-01-26 12:46:46Techno416Ramon_Tapia-P.A.R.T.Y.-(SAWH171)-SINGLE-WEB-2023-PTC
2023-01-26 12:46:16Techno737Pablo_Say-The_Club_Is_On_Fire_EP-(EI8HT036)-WEB-2023-PTC